KM6ZMV Weather Reports


time (UTC)temp
F
wind
direction
speed
knots
gust
knots
rain 1hr
in
rain 24hr
in
rain mn
in
humidity
%
barometer
mb
20260505153013 55 225 0.0 2.6 0.00 0.00 0.00 82 1015.3
20260505152506 55 275 0.0 2.6 0.00 0.00 0.00 82 1015.2
20260505152008 55 240 0.9 4.3 0.00 0.00 0.00 82 1015.1
20260505151515 55 242 1.7 4.3 0.00 0.00 0.00 82 1015.2
20260505151007 55 250 0.9 2.6 0.00 0.00 0.00 82 1015.2
20260505150510 55 242 0.9 4.3 0.00 0.00 0.00 82 1015.2
20260505140506 54 217 0.0 2.6 0.00 0.00 0.00 83 1014.5
20260505125008 54 186 0.9 2.6 0.00 0.00 0.00 83 1014.2
20260505124520 54 229 0.0 2.6 0.00 0.00 0.00 83 1014.2
20260505124006 54 183 0.9 3.5 0.00 0.00 0.00 83 1014.2
20260505123506 54 200 1.7 4.3 0.00 0.00 0.00 83 1014.1
20260505123019 54 177 1.7 4.3 0.00 0.00 0.00 83 1014.1
20260505122507 54 207 0.9 3.5 0.00 0.00 0.00 83 1014.2
20260505122007 54 162 0.9 3.5 0.00 0.00 0.00 82 1014.2
20260505121515 54 194 0.0 1.7 0.00 0.00 0.00 83 1014.2
20260505121005 54 207 0.0 1.7 0.00 0.00 0.00 83 1014.2
20260505120506 54 181 0.0 2.6 0.00 0.00 0.00 83 1014.1
20260505120013 54 261 0.9 3.5 0.00 0.00 0.00 83 1014.2
20260505115502 54 218 0.0 3.5 0.00 0.00 0.00 83 1014.2
20260505115003 54 186 0.9 3.5 0.00 0.00 0.00 83 1014.1
20260505114505 54 208 1.7 4.3 0.00 0.00 0.00 83 1014.2
20260505114004 54 196 1.7 4.3 0.00 0.00 0.00 83 1014.1
20260505113505 54 213 0.9 2.6 0.00 0.00 0.00 83 1014.1
20260505113010 54 207 0.9 1.7 0.00 0.00 0.00 82 1014.1
20260505112504 54 188 0.0 2.6 0.00 0.00 0.00 83 1014.0
20260505112003 54 160 0.0 2.6 0.00 0.00 0.00 83 1013.9
20260505111512 54 180 0.0 1.7 0.00 0.00 0.00 82 1013.9
20260505111006 54 205 0.0 1.7 0.00 0.00 0.00 82 1013.9
20260505110507 54 238 0.0 1.7 0.00 0.00 0.00 82 1013.8
20260505102008 54 169 0.0 1.7 0.00 0.00 0.00 82 1013.5
20260505101520 54 148 0.0 1.7 0.00 0.00 0.00 82 1013.4
20260505101004 54 95 0.9 1.7 0.00 0.00 0.00 82 1013.5
20260505100504 54 219 0.9 3.5 0.00 0.00 0.00 82 1013.5
20260505100021 54 194 0.9 3.5 0.00 0.00 0.00 82 1013.5
20260505095505 54 184 0.0 3.5 0.00 0.00 0.00 81 1013.5
20260505095008 54 151 0.0 3.5 0.00 0.00 0.00 81 1013.5
20260505094523 54 188 0.9 3.5 0.00 0.00 0.00 81 1013.5
20260505094007 54 131 0.9 3.5 0.00 0.00 0.00 81 1013.4
20260505093503 55 205 0.9 3.5 0.00 0.00 0.00 81 1013.3
20260505093006 55 171 0.9 4.3 0.00 0.00 0.00 81 1013.4
20260505092504 55 181 1.7 4.3 0.00 0.00 0.00 80 1013.3
20260505092004 55 150 0.0 6.1 0.00 0.00 0.00 80 1013.3
20260505091522 55 173 2.6 6.1 0.00 0.00 0.00 80 1013.3
20260505091003 55 194 0.0 4.3 0.00 0.00 0.00 79 1013.3
20260505090504 55 174 1.7 4.3 0.00 0.00 0.00 79 1013.2
20260505090035 55 171 0.9 2.6 0.00 0.00 0.00 79 1013.1
20260505085510 56 202 0.9 3.5 0.00 0.00 0.00 79 1013.1
20260505085006 56 250 0.9 3.5 0.00 0.00 0.00 79 1013.2
20260505084518 56 250 0.0 3.5 0.00 0.00 0.00 79 1013.2
20260505084013 56 194 1.7 3.5 0.00 0.00 0.00 78 1013.1
20260505083512 56 195 0.0 2.6 0.00 0.00 0.00 78 1013.2
20260505083026 56 207 0.9 2.6 0.00 0.00 0.00 78 1013.2
20260505082503 56 242 0.0 3.5 0.00 0.00 0.00 78 1013.0
20260505082004 56 226 0.0 3.5 0.00 0.00 0.00 77 1012.9
20260505081511 57 225 0.0 1.7 0.00 0.00 0.00 77 1012.9
20260505081003 57 234 0.0 3.5 0.00 0.00 0.00 77 1012.9
20260505080507 57 223 0.0 3.5 0.00 0.00 0.00 77 1012.9
20260505080009 57 178 0.0 1.7 0.00 0.00 0.00 77 1012.9
20260505075503 57 188 0.0 1.7 0.00 0.00 0.00 77 1012.9
20260505075004 57 277 0.0 1.7 0.00 0.00 0.00 77 1012.9
20260505074517 57 246 0.0 2.6 0.00 0.00 0.00 76 1012.8
20260505074006 58 224 0.0 2.6 0.00 0.00 0.00 77 1012.7
20260505073507 58 252 0.9 1.7 0.00 0.00 0.00 76 1012.7
20260505073039 58 248 0.0 0.9 0.00 0.00 0.00 76 1012.6
20260505072506 58 256 0.0 1.7 0.00 0.00 0.00 76 1012.6
20260505072007 58 234 0.0 2.6 0.00 0.00 0.00 76 1012.4
20260505071515 58 246 0.0 3.5 0.00 0.00 0.00 75 1012.3
20260505071003 59 248 1.7 3.5 0.00 0.00 0.00 75 1012.3
20260505070505 59 296 0.9 2.6 0.00 0.00 0.00 75 1012.3
20260505070009 59 237 0.9 3.5 0.00 0.00 0.00 75 1012.3
20260505065503 59 192 0.9 4.3 0.00 0.00 0.00 75 1012.3
20260505065004 59 199 0.0 4.3 0.00 0.00 0.00 75 1012.1
20260505064531 59 229 0.9 4.3 0.00 0.00 0.00 75 1012.0
20260505064004 59 228 0.0 4.3 0.00 0.00 0.00 76 1012.0
20260505063504 59 208 1.7 4.3 0.00 0.00 0.00 76 1011.8
20260505063022 59 188 0.0 1.7 0.00 0.00 0.00 77 1011.8
20260505062508 60 347 0.0 0.0 0.00 0.00 0.00 76 1011.7
20260505062011 60 347 0.0 0.9 0.00 0.00 0.00 76 1011.6
20260505061535 60 347 0.0 0.9 0.00 0.00 0.00 75 1011.5
20260505061009 60 347 0.0 1.7 0.00 0.00 0.00 75 1011.5
20260505060503 60 338 0.0 1.7 0.00 0.00 0.00 74 1011.4
20260505060008 60 329 0.0 1.7 0.00 0.00 0.00 74 1011.4
20260505055503 61 338 0.0 1.7 0.00 0.00 0.00 74 1011.4
20260505055003 61 324 0.0 2.6 0.00 0.00 0.00 73 1011.4
20260505054514 61 301 0.9 2.6 0.00 0.00 0.00 73 1011.4
20260505054012 62 283 0.9 3.5 0.00 0.00 0.00 72 1011.4
20260505053507 62 284 0.0 3.5 0.00 0.00 0.00 72 1011.3
20260505053018 62 9 1.7 3.5 0.00 0.00 0.00 71 1011.3
20260505052508 62 9 0.9 2.6 0.00 0.00 0.00 71 1011.3
20260505052004 63 319 0.0 2.6 0.00 0.00 0.00 70 1011.3
20260505051522 63 322 0.9 2.6 0.00 0.00 0.00 70 1011.2
20260505051014 63 306 0.9 3.5 0.00 0.00 0.00 69 1011.2
20260505050506 63 350 0.9 3.5 0.00 0.00 0.00 1011.2
20260505041519 66 322 0.9 3.5 0.00 0.00 0.00 66 1010.4
20260505041007 67 325 1.7 3.5 0.00 0.00 0.00 66 1010.4
20260505040506 67 272 0.9 2.6 0.00 0.00 0.00 66 1010.4
20260505040024 67 296 0.9 3.5 0.00 0.00 0.00 67 1010.3
20260505035507 68 237 0.9 5.2 0.00 0.00 0.00 67 1010.2
20260505035007 68 243 1.7 5.2 0.00 0.00 0.00 67 1010.1
20260505034527 68 223 0.0 4.3 0.00 0.00 0.00 68 1010.0
20260505034009 68 205 1.7 4.3 0.00 0.00 0.00 67 1009.8
20260505033503 68 180 1.7 6.1 0.00 0.00 0.00 67 1009.8
20260505033020 69 194 2.6 7.8 0.00 0.00 0.00 67 1009.7
20260505032505 69 185 2.6 7.8 0.00 0.00 0.00 67 1009.7
20260505032006 69 164 2.6 7.0 0.00 0.00 0.00 67 1009.4
20260505031537 69 184 2.6 6.1 0.00 0.00 0.00 66 1009.4
20260505031007 69 178 1.7 7.0 0.00 0.00 0.00 66 1009.4
20260505030507 70 178 1.7 7.0 0.00 0.00 0.00 66 1009.3
20260505030003 70 179 4.3 7.0 0.00 0.00 0.00 65 1009.3
20260505025504 70 226 0.9 6.1 0.00 0.00 0.00 65 1009.3
20260505025004 70 148 2.6 6.1 0.00 0.00 0.00 65 1009.3
20260505024510 70 222 1.7 5.2 0.00 0.00 0.00 65 1009.2
20260505024003 70 191 1.7 6.1 0.00 0.00 0.00 64 1009.2
20260505023503 71 181 2.6 6.1 0.00 0.00 0.00 64 1009.2
20260505023012 71 204 2.6 7.8 0.00 0.00 0.00 64 1009.1
20260505022503 71 174 3.5 9.6 0.00 0.00 0.00 63 1009.1
20260505022007 71 184 4.3 9.6 0.00 0.00 0.00 63 1009.0
20260505021520 71 190 3.5 8.7 0.00 0.00 0.00 62 1008.9
20260505021011 72 144 0.9 5.2 0.00 0.00 0.00 62 1008.9
20260505020507 72 187 1.7 7.0 0.00 0.00 0.00 62 1009.0
20260505020028 72 180 3.5 7.8 0.00 0.00 0.00 62 1009.0
20260505015508 72 233 3.5 9.6 0.00 0.00 0.00 62 1009.0
20260505015004 72 175 4.3 9.6 0.00 0.00 0.00 61 1009.0
20260505014506 72 180 2.6 8.7 0.00 0.00 0.00 61 1008.9
20260505014003 72 206 2.6 10.4 0.00 0.00 0.00 61 1009.0
20260505013504 72 183 3.5 10.4 0.00 0.00 0.00 61 1009.1
20260505013010 72 215 6.1 9.6 0.00 0.00 0.00 60 1009.3
20260505012503 72 162 2.6 9.6 0.00 0.00 0.00 60 1009.1
20260505012006 73 173 1.7 9.6 0.00 0.00 0.00 60 1009.2
20260505011528 73 177 5.2 9.6 0.00 0.00 0.00 59 1009.3
20260505011005 73 177 5.2 7.8 0.00 0.00 0.00 59 1009.4
20260505010513 73 178 1.7 9.6 0.00 0.00 0.00 59 1009.4
20260505010018 73 169 2.6 9.6 0.00 0.00 0.00 59 1009.4
20260505005508 73 212 3.5 7.0 0.00 0.00 0.00 59 1009.4
20260505005008 73 207 3.5 9.6 0.00 0.00 0.00 58 1009.5
20260505004541 73 195 4.3 9.6 0.00 0.00 0.00 58 1009.6
20260505004003 73 234 4.3 9.6 0.00 0.00 0.00 58 1009.5
20260505003503 74 165 3.5 8.7 0.00 0.00 0.00 57 1009.5
20260505003009 74 181 3.5 8.7 0.00 0.00 0.00 58 1009.4
20260505002505 73 142 3.5 8.7 0.00 0.00 0.00 57 1009.6
20260505002003 73 219 3.5 9.6 0.00 0.00 0.00 58 1009.6
20260505001515 74 167 3.5 9.6 0.00 0.00 0.00 58 1009.7
20260505001010 73 165 5.2 9.6 0.00 0.00 0.00 57 1009.6
20260505000506 74 182 5.2 8.7 0.00 0.00 0.00 56 1009.7
20260505000035 74 196 1.7 8.7 0.00 0.00 0.00 56 1009.7
20260504235508 74 128 0.9 9.6 0.00 0.00 0.00 57 1009.7
20260504235008 74 232 5.2 9.6 0.00 0.00 0.00 56 1009.7
20260504234524 74 196 5.2 9.6 0.00 0.00 0.00 56 1009.7
20260504234007 74 139 5.2 8.7 0.00 0.00 0.00 55 1009.7
20260504233513 74 190 5.2 8.7 0.00 0.00 0.00 54 1009.7
20260504233008 74 196 2.6 9.6 0.00 0.00 0.00 56 1009.8
20260504232505 74 189 5.2 10.4 0.00 0.00 0.00 55 1009.8
20260504232003 74 207 3.5 10.4 0.00 0.00 0.00 54 1009.9
20260504231511 73 199 3.5 9.6 0.00 0.00 0.00 56 1009.9
20260504231003 73 183 4.3 9.6 0.00 0.00 0.00 55 1010.0
20260504230506 74 295 3.5 7.8 0.00 0.00 0.00 54 1010.1
20260504230019 74 148 1.7 7.8 0.00 0.00 0.00 56 1010.1
20260504225508 73 184 4.3 7.0 0.00 0.00 0.00 55 1010.2
20260504225010 73 237 2.6 7.8 0.00 0.00 0.00 56 1010.3
20260504224520 73 177 3.5 8.7 0.00 0.00 0.00 55 1010.2
20260504224011 72 254 3.5 8.7 0.00 0.00 0.00 56 1010.3
20260504223507 73 175 3.5 7.8 0.00 0.00 0.00 54 1010.4
20260504223026 73 250 1.7 7.0 0.00 0.00 0.00 56 1010.4
20260504222508 72 242 1.7 6.1 0.00 0.00 0.00 55 1010.7
20260504222003 72 150 2.6 5.2 0.00 0.00 0.00 56 1010.6
20260504221513 71 234 0.9 7.0 0.00 0.00 0.00 56 1010.8
20260504221005 72 193 1.7 7.0 0.00 0.00 0.00 56 1010.9
20260504220503 71 202 1.7 7.0 0.00 0.00 0.00 57 1010.8
20260504220015 71 195 1.7 5.2 0.00 0.00 0.00 57 1010.8
20260504215507 71 163 2.6 8.7 0.00 0.00 0.00 58 1010.8
20260504215008 70 169 3.5 8.7 0.00 0.00 0.00 58 1010.9
20260504214520 70 146 1.7 7.0 0.00 0.00 0.00 60 1011.0
20260504214009 71 152 1.7 7.0 0.00 0.00 0.00 58 1011.0
20260504213506 70 181 3.5 8.7 0.00 0.00 0.00 59 1011.0
20260504213024 70 194 4.3 7.8 0.00 0.00 0.00 60 1011.1
20260504212507 70 122 2.6 9.6 0.00 0.00 0.00 59 1011.2
20260504212012 69 169 4.3 9.6 0.00 0.00 0.00 60 1011.3
20260504211507 69 171 2.6 8.7 0.00 0.00 0.00 61 1011.3
20260504211005 69 259 4.3 8.7 0.00 0.00 0.00 60 1011.4
20260504210502 69 247 1.7 6.1 0.00 0.00 0.00 61 1011.5
20260504210021 69 245 1.7 6.1 0.00 0.00 0.00 61 1011.6
20260504205504 68 231 1.7 7.8 0.00 0.00 0.00 63 1011.7
20260504205008 68 171 0.9 7.8 0.00 0.00 0.00 63 1011.8
20260504204519 67 193 3.5 8.7 0.00 0.00 0.00 64 1011.9
20260504204005 67 180 3.5 8.7 0.00 0.00 0.00 64 1012.0
20260504203509 67 167 3.5 8.7 0.00 0.00 0.00 61 1012.0
20260504203029 67 202 0.9 7.0 0.00 0.00 0.00 65 1012.1
20260504202506 66 273 3.5 8.7 0.00 0.00 0.00 63 1012.1
20260504202003 67 193 3.5 8.7 0.00 0.00 0.00 63 1012.2
20260504201508 65 205 0.9 7.8 0.00 0.00 0.00 65 1012.2
20260504201003 65 202 3.5 7.8 0.00 0.00 0.00 64 1012.2
20260504200506 65 168 2.6 7.0 0.00 0.00 0.00 66 1012.3
20260504200012 64 219 1.7 7.0 0.00 0.00 0.00 66 1012.2
20260504195502 66 167 3.5 7.0 0.00 0.00 0.00 64 1012.3
20260504195007 65 246 2.6 7.8 0.00 0.00 0.00 67 1012.3
20260504194515 65 165 2.6 7.8 0.00 0.00 0.00 68 1012.4
20260504194004 63 164 3.5 7.8 0.00 0.00 0.00 67 1012.3
20260504193508 64 270 1.7 6.1 0.00 0.00 0.00 68 1012.4
20260504193024 63 213 1.7 7.0 0.00 0.00 0.00 70 1012.5
20260504192508 63 228 3.5 7.8 0.00 0.00 0.00 68 1012.4
20260504192010 63 243 4.3 7.8 0.00 0.00 0.00 68 1012.5
20260504191508 63 182 1.7 10.4 0.00 0.00 0.00 71 1012.6
20260504191003 62 204 3.5 10.4 0.00 0.00 0.00 70 1012.7
20260504190506 62 157 3.5 7.0 0.00 0.00 0.00 71 1012.7
20260504190012 62 243 1.7 7.0 0.00 0.00 0.00 70 1012.8
20260504185504 63 220 2.6 7.8 0.00 0.00 0.00 69 1012.8
20260504185006 62 251 3.5 8.7 0.00 0.00 0.00 72 1012.9
20260504184515 61 167 1.7 8.7 0.00 0.00 0.00 73 1012.9
20260504184007 61 187 5.2 8.7 0.00 0.00 0.00 74 1012.9
20260504183506 60 259 2.6 6.1 0.00 0.00 0.00 74 1012.8
20260504183020 60 250 1.7 9.6 0.00 0.00 0.00 74 1012.8
20260504182507 60 189 4.3 9.6 0.00 0.00 0.00 73 1012.8
20260504182011 60 211 5.2 9.6 0.00 0.00 0.00 73 1012.8
20260504181529 60 233 2.6 7.8 0.00 0.00 0.00 74 1012.7
20260504181010 59 219 2.6 7.8 0.00 0.00 0.00 75 1012.7
20260504180504 59 193 2.6 7.8 0.00 0.00 0.00 75 1012.8
20260504180010 59 241 1.7 7.8 0.00 0.00 0.00 77 1012.7
20260504175507 59 211 1.7 7.8 0.00 0.00 0.00 77 1012.6
20260504175004 58 234 2.6 7.8 0.00 0.00 0.00 76 1012.6
20260504174514 58 152 3.5 7.8 0.00 0.00 0.00 77 1012.7
20260504174006 58 157 3.5 7.0 0.00 0.00 0.00 77 1012.7
20260504173507 58 233 1.7 5.2 0.00 0.00 0.00 77 1012.6
20260504173019 58 231 0.9 8.7 0.00 0.00 0.00 77 1012.6
20260504172505 58 190 0.9 8.7 0.00 0.00 0.00 78 1012.5
20260504172009 57 178 2.6 8.7 0.00 0.00 0.00 78 1012.6
20260504171524 57 220 4.3 8.7 0.00 0.00 0.00 78 1012.6
20260504171011 57 175 1.7 7.8 0.00 0.00 0.00 79 1012.5
20260504170506 57 258 2.6 9.6 0.00 0.00 0.00 79 1012.5